Weather in Lentekhi

Georgia     42°47′20″N   42°43′21″E
temp.,
°C
wind,
m/s
gust,
m/s
humid.,
%
clouds,
%
prec.,
mm/h
press.,
hPa
HPBL,
m
17 april, sat
sat1701:00+5n2264100 0.0 102242
04:00+4n3485100 0.8 1023119
07:00+4nne2390100 0.6 1023169
10:00+9nne117483 0.8 1021439
13:00+10wsw127199 0.3 10201037
16:00+9nnw1179100 1.0 1020517
19:00+7wsw2395100 3.3 1022196
22:00+6n1194100 5.2 102261
18 april, sun
sun1801:00+6nnw119074 0.4 102125
04:00+6nnw1193100 1.0 102125
07:00+6n1296100 4.5 102059
10:00+8ne228372 4.8 1020407
13:00+12e017197 0.3 1018932
16:00+10wnw018697 4.1 1018200
19:00+8wnw1193100 2.5 101923
22:00+7nw1195100 3.6 102028
19 april, mon
mon1901:00+7n229143 0.4 102035
04:00+6nnw338998 0.4 102047
07:00+5n3389100 0.0 102047
10:00+12s1165100 0.0 1019687
13:00+11sse1179100 0.6 1019374
16:00+14s1267100 1.8 1017913
19:00+11nne2280100 0.9 101751
22:00+8n3486100 0.9 101863
20 april, tue
tue2001:00+7n4483100 0.0 101855
04:00+8nne4481100 0.1 101564
07:00+9n4478100 0.1 101465
10:00+17n1252100 0.3 1011341
13:00+15e1260100 0.6 1013718
16:00+17e235194 0.8 10091070
19:00+11n3490100 4.1 1012148
22:00+8s2296100 6.4 101495
21 april, wed
wed2101:00+8ssw22100100 3.5 1016213
04:00+7ese01100100 4.6 1016115
07:00+7s1199100 0.1 1015151
10:00+8s2199100 1.1 1015192
13:00+8ssw2197100 1.0 1016213
16:00+10s329087 1.3 1015405
19:00+7s229798 0.3 1017326
22:00+6sse1199100 1.0 1019154